Location: Ellerstadt
(49.4644°N, 8.2615°E)
Time: 07:41:57
(UTC+00:00)

SPOT 3 Rocket - Pass Details

Date: 17 June 2021
Orbit: 779 x 794 km, 98.7° (Epoch: 03 August)

Event Time Altitude Azimuth Distance (km) Brightness Sun altitude
Exits shadow 21:01:09 - 195° (SSW) 3,245 6.4 -10.1°
Reaches altitude 10° 21:03:43 10° 206° (SSW) 2,337 5.7 -10.4°
Maximum altitude 21:08:10 29° 266° (W) 1,418 5.2 -10.8°
Drops below altitude 10° 21:12:40 10° 326° (NW) 2,361 7.6 -11.2°
Sets 21:15:19 0° 337° (NNW) 3,298 8.8 -11.4°
